Flag for Greece Weather past 2 weeks in Iráklion, Crete, Greece

Now
73 °F

Passing clouds.


Feels Like: 76 °F
Forecast: 65 / 76 °F
Wind: 15 mph from Northwest

Location: Heraklion Airport

Current Time: Jun 2, 2015 at 2:50:30 PM

Latest Report: Jun 2, 2015 at 1:50 PM


Visibility: N/A

Pressure: 29.95 "Hg

Humidity: 69%

Dew point: 63 °F

Location of IráklionLocation

Historic Weather in Iráklion — Graph

°F

Iráklion temperature yesterday

Maximum temperature yesterday: 73 °F (at 2:50 PM)
Minimum temperature yesterday: 57 °F (at 5:50 AM)
Average temperature yesterday: 67 °F

Past Weeks' High & Low Weather Summary

 TemperatureHumidityPressure
High84 °F (May 26, 12:50 PM)94% (May 24, 12:50 AM)30.04 "Hg (May 24, 12:50 AM)
Low57 °F (May 31, 4:50 AM)20% (May 19, 10:20 AM)29.59 "Hg (May 27, 2:50 AM)
Average69 °F71%29.87 "Hg
* Reported May 18 1:20 PM — Jun 2 1:50 PM, Iráklion, Weather by CustomWeather, © 2015

Note: Actual official high and low records may vary slightly from our data, if they occured in-between our weather recording intervals... More about our weather records

Advertising

Iráklion weather history for previous 24 hours

 ConditionsComfort  
Time TempWeatherWind HumidityBarometerVisibility
1:50 PM
Tue, Jun 2
73 °FPassing clouds.15 mph69%29.95 "HgN/A
1:20 PM73 °FPassing clouds.20 mph69%29.95 "HgN/A
12:50 PM73 °FPassing clouds.20 mph69%29.95 "HgN/A
12:20 PM73 °FPassing clouds.18 mph65%29.95 "HgN/A
11:50 AM73 °FPassing clouds.20 mph65%29.95 "HgN/A
11:20 AM72 °FPassing clouds.17 mph69%29.95 "HgN/A
10:50 AM72 °FScattered clouds.18 mph69%29.95 "HgN/A
10:20 AM72 °FScattered clouds.16 mph69%29.95 "HgN/A
9:50 AM72 °FScattered clouds.15 mph65%29.95 "HgN/A
9:20 AM72 °FScattered clouds.8 mph65%29.95 "HgN/A
8:50 AM68 °FPassing clouds.3 mph64%29.95 "HgN/A
8:20 AM68 °FPassing clouds.8 mph64%29.95 "HgN/A
7:50 AM64 °FPassing clouds.8 mph73%29.95 "HgN/A
7:20 AM61 °FSunny.6 mph83%29.92 "Hg10 mi
5:50 AM59 °FClear.5 mph88%29.92 "Hg10 mi
5:20 AM59 °FClear.5 mph88%29.92 "Hg10 mi
4:50 AM59 °FClear.3 mph88%29.92 "Hg10 mi
4:20 AM59 °FClear.3 mph88%29.92 "Hg10 mi
3:50 AM59 °FClear.3 mph88%29.92 "Hg10 mi
3:20 AM61 °FClear.5 mph77%29.92 "Hg10 mi
2:50 AM61 °FClear.3 mph77%29.92 "Hg10 mi
2:20 AM63 °FClear.6 mph83%29.98 "Hg10 mi
1:20 AM63 °FClear.5 mph83%29.95 "Hg10 mi
12:50 AM63 °FClear.3 mph83%29.95 "Hg10 mi
12:20 AM64 °FClear.5 mph73%29.98 "Hg10 mi
11:50 PM
Mon, Jun 1
64 °FClear.3 mph73%29.98 "Hg10 mi
11:20 PM68 °FClear.3 mph73%29.95 "Hg10 mi
10:50 PM68 °FClear.7 mph73%29.95 "Hg10 mi
10:20 PM68 °FPassing clouds.7 mph83%29.98 "HgN/A
9:50 PM68 °FClear.8 mph88%29.98 "Hg10 mi
8:50 PM68 °FPassing clouds.8 mph83%29.98 "HgN/A
8:20 PM70 °FScattered clouds.8 mph78%29.98 "HgN/A
7:50 PM70 °FScattered clouds.9 mph78%29.98 "HgN/A
7:20 PM70 °FScattered clouds.9 mph78%29.98 "HgN/A
6:50 PM70 °FScattered clouds.9 mph78%29.98 "HgN/A
6:20 PM72 °FScattered clouds.9 mph73%29.98 "HgN/A
5:50 PM72 °FScattered clouds.10 mph73%29.98 "HgN/A
5:20 PM73 °FScattered clouds.10 mph69%29.95 "HgN/A
4:50 PM73 °FScattered clouds.10 mph69%29.95 "HgN/A
4:20 PM73 °FScattered clouds.9 mph69%29.98 "HgN/A
3:50 PM73 °FScattered clouds.10 mph69%29.98 "HgN/A
3:20 PM73 °FPassing clouds.12 mph65%29.98 "HgN/A
2:50 PM73 °FPassing clouds.12 mph65%29.98 "HgN/A
2:20 PM72 °FPassing clouds.13 mph73%29.98 "HgN/A
Weather by CustomWeather, © 2015

See weather overviewHow to use our weather pages